Probability
0 0 0 0 0 0 0 0 0 0 0 0 0 0 0 0 0 0 0 0 0 0 0 0 0 0 0 0 0 0 0 0 0 0 0 0 0 0 0 0 0 0 0
0 0 0 0 0 0 0 0 0 0 0 0 0 0 0 0 0 0 0 0 0 0 0 0 0 0 0 0 0 0 0 0 0 0 0 0 0 0 0 0 0 0 0
0 0 0 0 0 0 0 0 0 0 0 0 0 0 0 0 0 0 0 0 0 0 0 0 0 0 0 0 0 0 0 0 0 0 0 0 0 0 0 0 0 0 0
0 0 0 0 0 0 0 0 0 0 0 0 0 0 0 0 0 0 0 0 0 0 0 0 0 0 0 0 0 0 0 0 0 0 0 0 0 0 0 0 0 0 0
0 0 0 0 0 0 0 0 0 0 0 0 0 0 0 0 0 0 0 0 0 0 0 0 0 0 0 0 0 0 0 0 0 0 0 0 0 0 0 0 0 0 0
0 0 0 0 0 0 0 0 0 0 0 0 0 0 0 0 0 0 0 0 0 0 0 0 0 0 0 0 0 0 0 0 0 0 0 0 0 0 0 0 0 0 0
0 0 0 0 0 0 0 0 0 0 0 0 0 0 0 0 0 0 0 0 0 0 0 0 0 0 0 0 0 0 0 0 0 0 0 0 0 0 0 0 0 0 0
0 0 0 0 0 0 0 0 0 0 0 0 0 0 0 0 0 0 0 0 0 0 0 0 0 0 0 0 0 0 0 0 0 0 0 0 0 0 0 0 0 0 0
0 0 0 0 0 0 0 0 0 0 0 0 0 0 0 0 0 0 0 0 0 0 0 0 0 0 0 0 0 0 0 0 0 0 0 0 0 0 0 0 0 0 0
0 0 0 0 0 0 0 0 0 0 0 0 0 0 0 0 0 0 0 0 0 0 0 0 0 0 0 0 0 0 0 0 0 0 0 0 0 0 0 0 0 0 0
0 0 0 0 0 0 0 0 0 0 0 0 0 0 0 0 0 0 0 0 0 0 0 0 0 0 0 0 0 0 0 0 0 0 0 0 0 0 0 0 0 0 0
0 0 0 0 0 0 0 0 0 0 0 0 0 0 0 0 0 0 0 0 0 0 0 0 0 0 0 0 0 0 0 0 0 0 0 0 0 0 0 0 0 0 0
0 0 0 0 0 0 0 0 0 0 0 0 0 0 0 0 0 0 0 0 0 0 0 0 0 0 0 0 0 0 0 0 0 0 0 0 0 0 0 0 0 0 0
0 0 0 0 0 0 0 0 0 0 0 0 0 0 0 0 0 0 0 0 0 0 0 0 0 0 0 0 0 0 0 0 0 0 0 0 0 0 0 0 0 0 0
0 0 0 0 0 0 0 0 0 0 0 0 0 0 0 0 0 0 0 0 0 0 0 0 0 0 0 0 0 0 0 0 0 0 0 0 0 0 0 0 0 0 0
0 0 0 0 0 0 0 0 0 0 0 0 0 0 0 0 0 0 0 0 0 0 0 0 0 0 0 0 0 0 0 0 0 0 0 0 0 0 0 0 0 0 0
0 0 0 0 0 0 0 0 0 0 0 0 0 0 0 0 0 0 0 0 0 0 0 0 0 0 0 0 0 0 0 0 0 0 0 0 0 0 0 0 0 0 0
0 0 0 0 0 0 0 0 0 0 0 0 0 0 0 0 0 0 0 0 0 0 0 0 0 0 0 0 0 0 0 0 0 0 0 0 0 0 0 0 0 0 0
0 0 0 0 0 0 0 0 0 0 0 0 0 0 0 0 0 0 0 0 0 0 0 0 0 0 0 0 0 0 0 0 0 0 0 0 0 0 0 0 0 0 0
0 0 0 0 0 0 0 0 0 0 0 0 0 0 0 0 0 0 0 0 0 0 0 0 0 0 0 0 0 0 0 0 0 0 0 0 0 0 0 0 0 0 0
0 0 0 0 0 0 0 0 0 0 0 0 0 0 0 0 0 0 0 0 0 0 0 0 0 0 0 0 0 0 0 0 0 0 0 0 0 0 0 0 0 0 0
0 0 0 0 0 0 0 0 0 0 0 0 0 0 0 0 0 0 0 0 0 0 0 0 0 0 0 0 0 0 0 0 0 0 0 0 0 0 0 0 0 0 0
0 0 0 0 0 0 0 0 0 0 0 0 0 0 0 0 0 0 0 0 0 0 0 0 0 0 0 0 0 0 0 0 0 0 0 0 0 0 0 0 0 0 0
0 0 0 0 0 0 0 0 0 0 0 0 0 0 0 0 0 0 0 0 0 0 0 0 0 0 0 0 0 0 0 0 0 0 0 0 0 0 0 0 0 0 0
0 0 0 0 0 0 0 0 0 0 0 0 0 0 0 0 0 0 0 0 0 0 0 0 0 0 0 0 0 0 0 0 0 0 0 0 0 0 0 0 0 0 0
0 0 0 0 0 0 0 0 0 0 0 0 0 0 0 0 0 0 0 0 0 0 0 0 0 0 0 0 0 0 0 0 0 0 0 0 0 0 0 0 0 0 0
Wind_Speed
10 10 9 10 10 9 9 10 10 9 9 10 10 10 10 9 8 8 7 7 7 6 5 6 6 5 4 4 3 4 4 4 6 5 3 3 4 5 6 5 5 6 7
8 9 9 9 9 9 9 9 9 9 9 9 9 9 9 9 9 9 8 8 8 8 7 7 7 5 6 4 4 5 5 5 5 7 4 3 5 5 5 6 6 6 5
8 8 9 9 9 10 9 8 8 9 8 8 9 9 9 9 9 9 8 8 8 7 7 7 7 6 6 5 5 5 5 5 5 5 5 3 3 3 4 5 6 5 6
7 8 9 9 9 9 8 8 8 8 8 9 8 8 8 8 8 8 7 7 6 6 6 6 6 7 8 7 6 6 5 5 4 5 5 4 4 4 3 4 5 4 5
8 8 8 7 7 7 7 7 7 7 8 7 7 6 6 6 6 7 7 7 6 5 5 5 6 7 9 7 5 5 5 4 4 4 5 4 4 3 4 4 6 5 5
8 8 7 7 7 7 7 7 7 7 6 6 7 7 6 5 8 10 8 6 6 6 5 5 5 6 9 10 11 9 7 5 5 4 5 6 6 6 5 5 5 5 5
7 7 7 7 7 7 7 7 7 7 6 6 6 6 6 6 8 10 10 6 6 6 5 4 4 5 6 5 8 9 9 10 9 6 6 7 7 6 5 5 5 6 6
7 7 7 8 7 7 7 7 6 5 6 6 5 5 5 5 7 8 8 5 4 4 5 5 5 5 5 5 4 4 5 6 7 6 6 7 6 6 6 6 6 6 5
8 8 8 8 8 8 7 7 5 5 5 4 4 5 5 4 6 6 6 4 3 4 4 4 4 5 8 8 4 4 5 5 8 11 11 10 12 12 8 3 3 4 6
8 8 7 8 8 8 7 6 5 5 5 4 4 4 4 3 5 6 6 3 3 2 2 3 5 5 7 7 4 4 5 6 4 5 6 7 6 7 10 5 3 5 5
7 7 7 7 7 7 6 5 5 5 5 4 4 2 2 3 4 5 6 3 4 3 2 2 3 7 7 7 5 4 7 6 3 3 3 3 3 3 4 4 4 4 5
8 8 7 6 6 6 7 6 5 6 6 4 3 2 1 1 2 3 4 3 3 3 3 3 3 6 7 7 5 7 9 6 1 1 2 3 3 4 4 4 5 5 6
9 8 7 7 6 6 7 7 5 5 4 3 3 2 1 1 1 2 3 3 3 2 2 3 4 5 5 4 6 8 6 2 1 2 3 3 3 3 3 3 4 4 5
10 8 7 7 6 5 5 5 5 5 4 4 3 3 2 1 1 1 1 1 2 1 1 2 3 3 2 3 4 3 2 2 2 3 3 3 2 2 2 2 2 3 3
9 8 7 6 6 5 4 3 4 3 4 5 4 4 3 2 3 3 2 2 2 2 1 1 0 0 1 1 2 2 2 2 2 2 2 3 3 3 3 2 2 2 2
9 7 6 6 5 5 5 4 5 4 5 4 4 3 2 2 2 2 2 2 2 1 0 1 1 1 2 2 2 2 2 2 3 2 3 3 3 3 3 3 2 2 3
10 8 6 6 6 5 5 5 4 4 5 5 4 3 2 2 2 2 2 1 1 0 1 1 1 2 2 2 2 2 3 3 2 2 3 3 3 3 3 3 3 3 3
9 9 8 6 5 5 5 4 4 4 2 1 1 2 1 1 1 1 1 1 0 0 1 2 2 2 2 2 3 3 3 3 2 3 3 3 2 2 3 3 3 3 3
8 6 6 6 5 5 5 4 3 3 2 1 0 1 1 1 0 0 0 1 2 2 2 2 2 2 2 3 3 3 3 3 3 3 3 3 2 2 3 3 3 5 4
6 10 8 6 5 5 4 4 3 3 2 2 1 1 0 1 0 1 1 1 2 2 2 3 3 3 3 3 3 3 3 3 3 3 3 3 2 3 3 4 3 3 3
6 7 10 6 5 4 4 3 3 3 2 2 1 2 2 1 2 2 2 2 2 3 3 3 3 3 3 3 3 3 4 3 3 3 3 3 3 3 3 3 3 3 3
6 5 5 5 4 4 3 3 3 3 2 2 1 1 2 1 1 2 2 3 3 3 3 3 3 3 3 3 3 3 3 4 3 3 3 3 3 3 3 2 2 2 2
6 6 5 4 4 4 3 2 2 2 2 2 2 2 2 2 2 2 3 3 3 3 3 3 3 3 3 3 3 4 4 4 4 4 3 3 3 3 2 2 3 2 2
6 6 5 4 3 3 3 2 2 2 2 2 2 2 2 2 3 3 3 3 3 3 3 3 3 5 6 4 4 4 4 5 4 4 5 4 4 3 3 2 2 2 2
5 5 4 4 3 3 2 2 2 2 2 2 2 2 3 3 3 3 3 3 4 4 4 4 3 4 6 7 6 5 8 10 8 5 4 4 4 4 3 3 2 2 2
5 4 3 3 3 2 2 2 2 2 2 2 3 3 3 3 4 4 4 3 4 4 4 4 5 6 6 6 7 9 10 10 10 9 4 4 4 4 4 3 3 3 2
Wind_Direction
183 184 184 188 187 184 188 191 188 183 180 182 185 185 186 186 183 184 189 182 189 195 194 199 210 200 201 203 198 200 206 200 241 265 249 252 257 265 279 278 274 273 280
179 179 185 183 181 185 190 188 184 183 183 183 181 183 186 186 184 187 190 188 192 197 201 202 211 201 208 206 204 210 215 211 222 260 270 259 254 260 267 276 280 276 269
171 175 179 180 183 189 189 183 180 180 178 177 178 183 185 185 186 190 190 192 196 201 200 204 209 200 214 214 213 218 221 222 219 242 266 261 264 266 276 277 274 275 276
170 175 182 185 185 186 183 178 178 177 176 179 183 185 185 184 186 186 187 191 197 202 202 205 205 205 214 214 217 221 220 223 226 241 260 265 263 265 262 271 282 267 273
170 178 184 177 174 173 173 172 171 173 176 176 176 177 177 179 185 182 185 188 192 200 205 209 212 216 222 220 220 217 209 219 228 242 258 269 268 268 262 257 275 284 274
172 178 171 165 166 168 168 165 163 166 167 165 173 175 178 188 190 190 184 186 189 195 208 215 219 224 234 239 245 241 226 221 227 235 253 259 266 258 261 263 275 292 290
171 168 165 165 166 167 161 159 165 167 162 164 171 172 183 192 189 193 191 182 189 198 204 207 218 228 233 230 247 253 251 252 249 244 248 255 264 260 262 268 262 264 269
166 166 164 162 162 158 156 162 164 160 163 167 171 174 179 192 190 194 193 184 190 200 204 206 213 225 229 230 223 234 242 249 255 253 246 255 256 258 249 258 267 272 268
169 170 167 162 158 156 161 164 160 155 158 163 163 167 177 192 189 189 178 171 193 210 212 210 214 222 243 248 233 239 253 259 266 269 270 275 282 286 286 280 278 284 287
175 168 160 157 157 160 162 156 149 150 152 146 146 162 172 183 187 186 175 168 188 205 213 222 233 241 251 252 235 233 256 262 259 271 276 284 287 288 292 277 259 271 284
153 144 145 149 151 150 143 140 139 134 131 134 138 142 159 172 185 188 183 173 185 192 206 221 236 253 259 262 263 241 260 276 249 254 269 275 280 278 277 269 248 242 262
136 136 139 140 138 134 133 131 133 135 135 138 135 129 128 151 169 193 199 200 189 185 210 220 236 259 267 272 275 278 287 298 284 273 273 270 271 270 268 269 265 253 248
132 134 133 127 126 133 137 137 135 137 140 146 147 157 160 142 200 210 211 219 225 208 219 247 263 271 277 274 281 291 300 297 267 268 268 265 259 258 268 280 283 282 278
134 134 133 130 126 122 126 136 142 150 149 151 159 167 166 166 200 204 201 211 237 245 230 257 278 292 304 303 301 304 297 256 254 251 262 266 270 274 275 272 278 295 298
131 132 131 129 132 125 117 125 140 157 165 165 175 171 169 197 222 216 193 192 195 201 154 105 76 337 296 293 289 283 278 283 283 273 274 283 286 287 288 283 269 277 276
133 134 134 132 129 128 122 97 82 106 121 128 143 153 181 202 207 213 238 253 261 246 104 152 230 247 258 266 273 281 276 271 266 267 271 273 278 281 290 291 277 270 280
137 138 134 134 134 135 135 132 120 82 86 97 110 119 125 154 173 202 224 236 251 192 118 216 241 248 256 260 261 262 264 268 265 265 271 272 275 280 285 289 290 287 285
128 133 134 136 136 137 137 136 137 138 127 77 76 98 109 125 162 203 204 83 67 255 220 230 242 248 250 254 258 261 267 272 267 265 266 266 266 271 279 283 283 280 285
127 130 129 128 128 129 129 128 130 134 139 140 77 41 76 68 40 230 130 156 204 231 240 242 243 244 248 250 255 259 260 264 265 263 263 264 261 259 266 273 279 289 290
121 130 128 128 127 127 131 135 138 142 149 161 184 209 148 55 166 241 226 211 218 232 238 245 249 248 248 246 251 255 260 263 262 259 260 261 257 254 259 263 267 272 273
122 127 126 122 126 133 139 145 150 155 167 184 213 233 234 218 218 230 236 234 230 236 241 244 246 248 248 245 244 249 254 258 254 250 252 255 254 255 254 256 262 263 269
122 124 125 128 129 134 139 147 151 158 172 188 225 256 258 260 234 241 247 253 249 243 239 240 243 240 235 236 240 244 248 253 253 249 250 249 247 250 251 253 259 266 263
121 121 120 122 128 138 132 138 149 163 182 200 213 234 245 241 242 243 248 252 251 251 247 242 245 247 244 242 236 231 237 244 244 238 240 244 244 246 243 245 249 258 255
123 126 129 131 132 139 147 155 164 179 195 210 223 233 239 242 248 253 252 252 252 252 247 242 244 250 253 254 248 241 239 245 241 232 228 229 234 237 232 232 235 241 240
120 126 132 140 147 152 157 166 180 193 209 223 230 240 244 247 252 256 255 254 256 258 257 252 250 252 255 255 254 252 262 267 264 243 215 215 222 221 218 218 219 223 213
118 125 132 140 150 158 167 182 200 211 222 236 240 242 248 253 257 259 258 255 255 257 258 254 252 254 256 257 256 263 269 268 265 261 230 203 208 212 207 209 208 205 193